Regional Weather Roundup
Issued by NWS

Home | Current Version | Previous Version | Text Only | Print | Product List | Glossary Off
Versions: 1 2 3 4 5 6 7 8 9 10 11 12 13 14 15 16 17 18 19 20 21 22 23 24 25 26 27 28 29 30 31 32 33 34 35 36 37 38 39 40 41 42 43 44 45 46 47 48 49 50

000
ASUS45 KCYS 171810
RWRWY

WYOMING REGIONAL WEATHER ROUNDUP
NATIONAL WEATHER SERVICE CHEYENNE WY
1200 PM MDT FRI APR 17 2015

NOTE:  "FAIR" INDICATES FEW OR NO CLOUDS BELOW 12,000 FEET
WITH NO SIGNIFICANT WEATHER AND/OR OBSTRUCTIONS TO VISIBILITY.

WYZ001-171900-
YELLOWSTONE NATIONAL PARK

CITY           SKY/WX    TMP DP  RH WIND       PRES   REMARKS
LK YELLOWSTONE   N/A     46  14  27 E5        30.23F
6HR MIN TEMP:  18; 6HR MAX TEMP:  47;

W YELLOWSTONE  NOT AVBL

$$
WYZ002>013-054>058-071-098>099-171900-
NORTHERN WYOMING

CITY           SKY/WX    TMP DP  RH WIND       PRES   REMARKS
JACKSON        SUNNY     52  18  25 N12       30.16F
CODY           FAIR      52  32  46 NE8       30.20F
GREYBULL       FAIR      54  28  36 VRB5      30.18F
6HR MIN TEMP:  28; 6HR MAX TEMP:  54;

WORLAND        FAIR      51  28  41 CALM      30.19F
6HR MIN TEMP:  23; 6HR MAX TEMP:  52;

SHERIDAN       FAIR      57  30  35 VRB5      30.19F
6HR MIN TEMP:  26; 6HR MAX TEMP:  58;

BUFFALO        FAIR      55  30  38 MISG      30.21F
6HR MIN TEMP:  33; 6HR MAX TEMP:  56;

GILLETTE       FAIR      56  32  40 NE7       30.18F
6HR MIN TEMP:  25; 6HR MAX TEMP:  56;

HULETT         FAIR      57  32  38 E10       30.19F
NEWCASTLE      FAIR      50  32  50 CALM      30.19F

$$
WYZ014>020-022>026-101>103-171900-
CENTRAL WYOMING

CITY           SKY/WX    TMP DP  RH WIND       PRES   REMARKS
BIG PINEY      FAIR      54  18  24 VRB5      30.14F
6HR MIN TEMP:  22; 6HR MAX TEMP:  55;

PINEDALE       FAIR      54  19  26 NE14G23   30.13F
DUBOIS         FAIR      48  27  43 SE13G20   30.18S
LANDER         FAIR      47  30  51 W8        30.18F
6HR MIN TEMP:  33; 6HR MAX TEMP:  48;

RIVERTON       FAIR      50  30  46 NE6       30.19F
6HR MIN TEMP:  32; 6HR MAX TEMP:  50;

CASPER         CLOUDY    40  34  79 SE10      30.19S WCI  33
6HR MIN TEMP:  37; 6HR MAX TEMP:  43; 6HR PCP: TRACE;

DOUGLAS        LGT RAIN  41  36  82 NE13      30.19F
6HR MIN TEMP:  38; 6HR MAX TEMP:  42; 6HR PCP:  0.13;


$$
WYZ021-027>030-104>119-171900-
SOUTHERN WYOMING

CITY           SKY/WX    TMP DP  RH WIND       PRES   REMARKS
EVANSTON       CLOUDY    37  31  78 E9        30.17S WCI  30
6HR MIN TEMP:  29; 6HR MAX TEMP:  38; 6HR PCP: TRACE;

KEMMERER       CLOUDY    45  30  57 NE3       30.18S
FORT BRIDGER   LGT SNOW  34  34 100 CALM      30.20S
ROCK SPRINGS   LGT RAIN  36  32  85 NE22G33   30.13F WCI  25
6HR MIN TEMP:  30; 6HR MAX TEMP:  37; 6HR PCP:  0.05;

DIXON          LGT RAIN  41  34  76 NE10G16   30.07R
RAWLINS        SNOW      33  31  92 N15       30.11S VSB 1/2 WCI  23
6HR MIN TEMP:  33; 6HR MAX TEMP:  34; 6HR PCP:  0.08;

SARATOGA       LGT SNOW  32  32 100 N10       30.08F WCI  24
LARAMIE        LGT SNOW  33  29  85 NE26G35   30.03F FOG     WCI  20
6HR MIN TEMP:  31; 6HR MAX TEMP:  34; 6HR PCP:  0.05;

CHEYENNE       LGT SNOW  34  32  92 N17G26    30.05S FOG     WCI  23
6HR MIN TEMP:  33; 6HR MAX TEMP:  35; 6HR PCP:  0.36;

TORRINGTON     LGT RAIN  45  42  89 NE23      30.08F FOG
6HR MIN TEMP:  42; 6HR MAX TEMP:  45; 6HR PCP:  0.33;

PINE BLUFFS    LGT RAIN  45  43  93 NE14G20   30.04F

$$


USA.gov is the U.S. government's official web portal to all federal, state and local government web resources and services.